SCP
0 0 0 0 0 0 0 -0 -0 0 0 0 -0 -0 -0 -0 -0 -0 -0 -0 -0 -0 0 0 0 0 0 0 0 0 0 0 0 0 0 0 0 0 0 0 0 0 0 0 0 0 0
0 0 0 0 0 0 0 0 -0 -0 -0 0 -0 -0 -0 -0 -0 -0 -0 -0 -0 -0 0 0 0 0 0 0 0 0 0 0 0 0 0 0 0 0 0 0 0 0 0 0 0 0 0
0 0 0 0 0 0 0 0 0 0 0 0 -0 -0 -0 -0 -0 -0 -0 -0 -0 -0 0 0 0 0 0 0 0 0 0 0 0 0 0 0 0 0 0 0 0 0 0 0 0 0 0
0 0 0 0 0 0 0 0 0 0 0 0 0 -0 -0 -0 0 -0 -0 -0 -0 -0 0 0 0 0 0 0 -0 -0 0 0 0 -0 0 0 0 0 0 0 0 0 0 0 0 0 0
0 0 0 0 0 0 0 0 0 0 0 0 0 -0 -0 -0 -0 -0 -0 -0 -0 0 0 0 0 0 0 0 0 0 0 0 0 0 0 0 0 0 0 0 0 0 0 0 0 0 0
0 0 0 0 0 0 0 0 0 0 0 0 0 0 0 0 -0 -0 -0 -0 0 0 0 0 0 0 0 0 0 0 0 0 0 0 0 0 0 0 0 0 0 0 0 0 0 0 0
0 0 0 0 0 0 0 0 0 0 0 0 0 0 0 0 0 0 -0 0 0 0 0 0 0 0 0 0 -0 0 0 0 0 0 0 0 0 0 0 0 0 0 0 0 0 0 0
0 0 0 0 0 0 0 0 0 0 0 0 0 0 0 0 0 0 0 0 0 0 0 0 0 -0 -0 -0 0 0 0 0 0 0 0 0 0 0 0 0 0 0 0 0 0 0 0
0 0 0 0 0 0 0 0 0 0 0 0 0 0 0 0 0 0 0 0 0 0 0 0 0 0 -0 0 0 0 0 0 0 0 0 0 0 0 0 0 0 0 0 0 0 0 0
0 0 0 -0 0 0 0 0 0 0 0 0 0 0 -0 0 0 0 0 0 0 0 0 0 0 0 0 0 0 0 0 0 0 0 0 0 0 0 0 0 0 0 0 0 0 0 0
0 0 0 0 -0 0 0 0 0 0 0 0 0 0 -0 0 0 0 0 -0 0 0 0 0 0 0 0 0 0 0 0 0 0 0 0 0 0 0 0 0 0 0 0 0 0 0 0
0 0 0 0 0 -0 -0 0 0 0 0 0 0 -0 0 0 0 0 -0 0 0 0 0 0 0 0 0 0 0 0 0 0 0 0 0 0 0 0 0 0 0 0 0 0 0 0 0
0 0 0 0 0 0 -0 0 0 -0 0 0 -0 -0 0 0 0 0 0 0 0 0 0 0 0 0 0 0 0 0 0 0 0 0 0 0 0 0 0 0 0 0 0 0 0 0 0
0 0 0 0 0 0 0 0 0 -0 -0 -0 0 0 0 0 0 0 0 0 0 0 0 0 0 0 0 0 0 0 0 0 0 0 0 0 0 0 0 0 0 0 0 0 0 0 0
0 0 0 0 0 0 -0 0 0 0 -0 -0 0 0 0 0 0 0 0 0 0 0 0 0 0 0 0 0 0 0 0 0 0 0 0 0 0 0 0 0 0 0 0 0 0 0 0
0 0 0 0 0 0 -0 -0 0 0 0 0 0 0 0 0 0 0 0 0 0 0 0 0 0 0 0 0 0 0 0 0 0 0 0 0 0 0 0 0 0 0 0 0 0 0 0
0 0 0 0 0 0 0 0 0 0 0 -0 0 0 0 0 0 0 0 0 0 0 0 0 0 0 0 0 0 0 0 0 0 0 0 0 0 0 0 0 0 0 0 0 0 0 0
0 0 0 0 0 0 0 0 0 0 0 0 0 0 0 0 0 0 0 0 0 0 0 0 0 0 0 0 0 0 0 0 0 0 0 0 0 0 0 0 0 0 0 0 0 0 0
0 0 0 0 0 0 0 0 0 0 0 0 0 0 0 0 0 0 0 0 0 0 0 0 0 0 0 0 0 0 0 0 0 0 0 0 0 0 0 0 0 0 0 0 0 0 0
0 0 0 0 0 0 0 0 0 0 0 0 0 0 0 0 0 0 0 0 0 0 0 0 0 0 0 0 0 0 0 0 0 0 0 0 0 0 0 0 0 0 0 0 0 0 0
0 0 0 0 0 0 0 0 0 0 0 0 0 0 0 0 0 0 0 0 0 0 0 0 0 0 0 0 0 0 0 0 0 0 0 0 -0 -0 -0 -0 0 0 0 0 0 0 0
0 0 0 0 0 0 0 0 0 0 -0 0 0 0 0 0 0 0 0 0 0 0 0 0 0 0 0 0 0 0 -0 0 0 0 0 0 0 0 0 0 0 0 0 0 -0 0 0
0 0 0 0 0 0 0 0 0 0 0 0 0 0 0 0 0 0 0 0 0 0 0 0 0 0 0 0 0 0 0 0 0 0 0 0 0 0 0 0 0 0 -0 -0 0 0 0
0 0 0 0 0 0 0 0 0 0 0 0 0 0 0 0 0 0 0 0 0 0 0 0 0 0 0 0 -0 -0 -0 -0 -0 -0 -0 0 0 0 0 0 0 0 0 0 0 0 0
0 0 0 0 0 0 0 0 0 0 0 0 0 0 0 0 0 0 0 0 0 0 0 0 0 0 0 0 0 0 0 0 0 0 -0 -0 -0 0 0 0 0 -0 0 0 0 0 0
0 0 0 0 0 0 0 0 0 0 0 0 0 0 0 0 0 0 0 0 0 0 0 0 0 0 0 0 0 0 0 0 0 0 0 0 -0 0 0 0 0 0 0 0 0 -0 0
0 0 0 0 0 0 0 0 0 0 0 0 0 0 0 0 0 0 0 0 0 0 0 0 0 0 0 0 0 0 0 0 0 0 0 0 0 0 0 0 0 0 0 0 0 0 0
0 0 0 0 0 0 0 0 0 0 0 0 0 0 0 0 0 0 0 0 0 0 0 0 0 0 0 0 0 0 0 0 0 0 0 0 0 0 0 0 0 0 0 0 0 -0 0
0 0 0 0 0 0 0 0 0 0 0 0 0 0 0 0 0 0 0 0 0 0 0 0 0 0 0 0 0 0 0 0 0 0 0 0 0 0 0 0 0 0 -0 -0 0 -0 -0
Wind_Speed_500mb
43 44 45 45 45 45 45 43 42 41 40 39 38 37 37 37 35 28 27 22 18 17 16 16 17 13 8 6 4 5 3 8 9 8 6 9 15 11 11 8 8 13 10 11 14 18 28
48 49 48 47 45 44 45 46 45 45 43 41 42 40 37 35 34 30 23 18 12 13 14 12 15 10 6 7 11 6 3 7 8 6 3 5 5 7 6 7 10 7 9 15 15 23 16
50 51 50 47 44 43 44 44 46 47 48 46 43 41 37 34 31 27 18 13 8 8 10 8 11 11 13 14 12 10 5 5 6 2 3 3 2 3 6 6 3 3 13 14 21 25 21
53 56 55 50 44 44 45 44 47 49 49 49 46 40 34 31 27 20 13 11 7 3 6 6 7 13 11 8 18 15 10 7 6 3 9 9 9 8 6 6 3 6 6 12 5 4 13
55 57 57 54 46 45 46 48 51 52 53 51 46 39 32 26 18 13 11 11 6 2 5 6 9 7 8 6 11 10 10 7 6 6 5 11 5 4 3 5 5 3 8 9 5 8 6
56 56 56 54 51 52 52 54 54 54 55 51 45 37 25 18 11 13 4 11 12 10 8 1 8 6 2 3 4 10 10 14 11 6 4 5 5 7 4 9 8 6 5 4 10 2 12
57 56 57 54 55 56 57 56 57 56 55 51 43 31 21 8 9 11 9 2 6 4 14 11 6 10 16 7 7 12 6 4 8 3 6 2 10 14 12 19 7 5 6 8 5 3 19
60 59 57 55 56 57 58 56 59 59 54 49 39 27 14 4 10 9 14 8 13 11 12 10 19 29 26 20 8 17 18 8 7 7 4 7 15 9 8 6 11 12 10 9 11 11 14
61 60 56 56 57 58 59 58 60 59 57 47 36 22 9 10 8 12 14 15 18 15 6 10 7 5 6 19 10 10 18 12 7 7 11 12 2 8 6 9 13 9 12 9 9 10 13
61 58 56 55 58 60 59 60 60 59 53 45 32 19 7 13 9 6 5 17 22 10 6 1 2 4 9 8 9 7 23 12 6 9 8 10 2 12 7 11 13 14 15 8 8 11 14
60 57 53 56 59 61 61 59 58 57 47 38 29 19 8 13 7 2 14 23 10 1 3 3 4 4 4 10 8 2 18 18 21 13 8 1 10 14 14 8 13 2 10 5 7 18 9
56 60 57 55 59 61 61 60 57 54 39 32 27 20 13 8 4 13 20 10 2 4 5 2 5 6 9 4 5 9 7 11 3 12 11 23 5 7 9 8 6 11 7 1 1 5 10
53 57 62 58 56 60 61 59 57 52 34 22 22 19 12 11 12 17 12 3 3 5 6 3 4 7 10 6 5 5 6 9 15 10 19 11 9 3 7 11 6 7 1 8 7 8 5
51 55 60 62 57 57 60 60 57 53 41 14 11 14 13 11 15 18 4 3 7 1 3 5 7 20 10 2 3 7 6 6 6 4 12 13 16 14 8 9 9 8 6 6 9 8 12
49 51 57 62 58 56 57 58 57 54 48 27 16 14 13 14 18 16 1 3 4 3 5 8 16 8 3 2 10 8 5 5 3 9 5 6 12 1 6 3 5 9 12 5 9 3 12
46 49 52 58 62 58 57 56 57 55 53 42 17 15 9 14 22 11 2 4 4 3 5 4 6 6 7 4 14 9 5 3 4 8 26 12 10 2 5 3 2 10 17 6 4 8 11
44 46 49 54 59 62 60 58 56 54 54 50 11 4 5 14 19 4 1 5 7 9 9 6 7 14 15 18 15 12 8 8 10 7 10 6 8 5 8 13 28 12 12 4 4 7 8
43 45 48 49 55 61 61 59 59 59 52 49 12 3 8 15 3 3 2 4 11 11 8 9 7 15 14 6 9 13 16 13 14 17 11 19 9 20 21 6 7 11 20 22 14 13 10
40 44 43 46 50 55 61 59 56 55 53 49 26 9 9 13 2 3 8 8 9 7 5 5 5 4 3 4 8 11 12 2 2 13 7 8 8 6 6 3 3 10 16 19 17 7 25
38 41 44 45 47 51 56 57 53 51 46 35 15 7 9 14 9 4 7 7 7 6 2 9 8 6 3 7 10 9 8 3 1 5 9 4 10 18 20 19 1 11 12 20 27 20 28
39 38 42 43 42 47 52 54 50 48 42 26 16 3 3 7 3 6 2 6 10 8 9 11 4 8 6 8 12 19 19 13 11 23 23 10 23 28 37 38 34 37 36 37 40 43 38
40 38 39 42 41 43 50 54 49 46 42 15 9 8 8 8 8 7 7 5 5 3 5 12 15 12 15 15 20 34 35 27 22 12 9 6 12 9 27 22 27 39 44 50 50 48 48
39 39 36 39 39 38 42 48 51 46 43 15 16 10 6 4 3 4 3 2 2 9 13 21 10 24 26 33 33 32 34 37 29 17 10 8 10 11 23 13 15 25 50 50 44 38 33
38 40 35 36 36 36 37 39 43 44 43 32 18 8 5 7 5 6 5 14 24 11 18 24 34 17 11 29 48 45 44 45 43 41 43 27 15 7 10 11 15 10 6 12 16 29 32
36 40 37 35 34 32 35 37 37 34 37 32 20 7 3 9 9 14 6 12 19 19 16 20 15 14 35 27 8 11 4 6 11 13 25 33 18 8 8 12 26 33 6 3 8 21 16
35 42 40 35 34 30 29 34 38 31 31 29 19 9 2 9 5 6 9 12 8 9 7 8 21 21 9 6 5 5 4 7 3 4 7 10 12 7 5 9 8 5 5 6 1 22 5
38 35 41 36 35 29 27 29 34 34 30 24 16 11 7 9 11 1 7 8 6 3 7 12 14 9 9 5 3 3 3 6 4 6 3 7 7 20 20 12 14 5 6 4 10 8 28
46 36 37 40 36 26 28 28 30 31 32 20 17 12 8 11 30 16 13 17 12 11 6 6 9 4 5 3 4 4 4 6 7 6 7 4 5 6 6 10 14 9 6 10 25 55 57
59 45 39 38 35 28 29 27 28 28 28 19 17 14 13 20 26 48 32 28 32 28 10 7 6 4 3 2 1 3 4 4 7 6 5 6 8 4 10 10 15 23 33 50 50 54 58
Wind_Direction_500mb
9 5 1 358 357 355 354 354 351 350 350 346 342 340 342 340 335 331 327 321 305 287 285 292 310 322 314 299 177 161 38 26 51 60 99 135 156 155 192 195 206 218 227 249 237 251 259
6 3 0 357 356 355 354 353 352 349 348 345 340 337 336 339 335 331 328 320 307 283 276 281 307 315 304 266 170 189 260 322 342 11 63 147 140 191 168 207 205 167 221 257 264 249 240
7 3 358 356 355 356 355 353 354 351 348 346 340 336 335 339 338 333 327 319 299 268 256 258 300 301 277 234 182 195 243 299 318 262 264 299 317 206 191 185 163 232 262 252 240 240 239
7 4 2 358 356 355 354 355 352 350 348 345 341 338 338 340 342 342 342 335 318 265 222 230 285 300 260 184 208 211 243 261 249 271 269 255 292 265 223 138 84 216 233 247 71 242 239
5 5 4 5 4 3 359 355 351 348 345 343 340 338 339 343 356 14 14 14 358 177 205 234 273 288 264 224 210 243 232 238 272 262 237 232 220 195 178 218 231 170 233 210 155 49 338
5 4 6 5 360 357 355 353 352 349 345 342 340 338 343 353 35 44 78 49 74 105 111 155 259 290 234 228 220 216 238 278 261 227 175 173 156 200 155 205 232 178 223 227 257 7 322
4 5 4 2 0 357 355 357 355 352 348 344 343 344 346 20 86 56 40 339 348 322 295 234 279 277 299 298 248 220 241 253 226 143 261 61 220 225 246 235 240 239 242 246 271 186 324
3 3 2 2 1 359 359 359 357 353 352 347 344 347 350 105 115 84 65 63 20 311 311 274 258 255 253 271 287 250 240 217 192 246 182 221 236 211 237 184 193 204 211 225 291 290 312
3 2 3 3 3 3 1 1 360 358 354 354 355 353 5 148 129 122 71 37 357 335 276 290 255 248 205 225 237 261 205 194 202 219 216 235 270 186 215 167 172 186 204 190 265 310 274
4 5 4 4 4 4 3 3 1 0 358 358 3 5 38 143 132 119 27 348 335 322 311 37 221 172 167 172 252 252 214 194 191 250 187 249 191 191 185 226 205 209 199 202 239 295 299
5 6 7 2 4 4 4 5 2 2 4 6 15 24 63 144 115 81 329 330 330 310 246 35 72 78 295 222 328 216 219 215 231 200 197 309 194 193 232 230 189 159 158 223 275 287 281
4 5 5 4 1 2 3 4 4 5 7 18 26 33 70 73 61 336 325 334 102 236 245 100 46 9 346 282 267 298 226 219 199 215 231 263 226 237 246 125 170 136 167 118 148 243 252
1 5 4 2 2 359 359 2 6 5 4 13 30 40 45 23 347 341 335 140 235 223 20 351 343 339 331 277 290 324 291 215 238 230 231 238 220 223 198 164 140 167 201 290 239 211 282
358 0 3 3 1 359 357 359 3 3 4 334 2 12 352 350 348 345 15 129 225 40 294 343 302 310 261 262 230 336 316 239 62 272 254 251 243 180 181 227 196 171 209 252 288 268 295
354 356 359 2 1 359 358 357 1 1 357 349 286 306 343 346 345 344 141 193 242 207 320 301 307 263 263 159 347 321 311 222 88 34 294 273 235 303 78 7 222 147 214 356 260 298 274
350 352 355 359 360 0 357 357 355 0 357 351 311 281 267 337 342 344 96 262 247 246 334 254 262 254 261 297 324 304 277 231 175 89 71 338 276 18 42 87 89 255 146 183 178 258 257
344 349 350 354 358 359 360 356 355 354 356 354 332 264 314 333 336 31 223 262 278 259 338 255 253 264 273 290 273 264 261 278 215 152 120 79 252 210 170 229 253 207 206 160 244 235 265
338 343 348 349 355 357 1 357 357 353 357 356 352 289 329 345 11 50 213 314 311 271 275 262 264 267 256 231 242 245 260 261 195 160 166 191 273 247 246 163 276 259 250 220 228 221 236
332 335 343 345 349 356 358 357 359 356 357 354 341 309 344 353 71 345 325 287 270 286 323 310 283 36 6 250 272 249 257 57 104 206 196 168 216 278 243 160 94 222 206 220 230 243 242
325 331 336 342 345 350 356 356 0 359 358 359 352 341 356 49 67 43 347 282 297 337 265 347 308 67 306 248 243 270 259 243 86 205 243 268 243 237 253 273 174 236 217 218 227 243 256
316 324 329 336 341 345 352 354 1 360 3 5 14 36 345 315 36 345 276 304 296 296 352 348 146 66 3 280 279 261 277 287 286 288 279 233 256 250 257 264 264 263 269 260 249 250 249
310 316 324 330 337 342 346 349 357 3 7 23 26 345 317 281 290 283 195 214 265 254 297 291 264 318 321 273 267 285 285 280 266 272 238 190 264 285 262 260 255 265 265 262 258 260 259
303 307 318 325 330 337 344 347 349 360 6 21 3 324 296 246 252 271 232 265 213 339 279 239 272 313 289 278 284 278 269 262 256 258 262 267 265 285 275 287 281 267 251 252 254 250 249
297 301 312 317 324 330 338 347 345 354 358 6 6 351 311 281 251 246 297 301 290 272 258 278 297 281 264 304 298 277 260 254 248 247 241 244 243 237 284 289 251 268 293 260 259 255 254
295 299 305 311 315 324 329 343 340 353 348 349 358 7 296 285 282 289 312 286 297 288 258 277 277 287 298 302 281 308 155 174 202 232 229 220 212 236 240 220 294 286 270 285 243 285 304
289 299 299 304 307 314 324 337 334 350 342 338 339 338 276 297 249 294 311 295 298 316 300 263 311 323 306 269 265 327 335 329 360 99 24 159 224 219 246 274 269 357 94 118 313 270 131
256 282 293 297 301 305 317 326 334 336 338 338 330 298 321 259 273 213 269 291 264 282 277 294 336 322 346 318 307 320 297 287 301 312 275 147 177 223 244 260 274 334 147 176 256 350 323
257 262 281 290 292 303 306 317 329 330 329 340 324 299 283 271 286 260 258 249 250 229 251 321 298 193 292 22 337 14 299 341 294 283 299 239 229 226 228 245 264 145 214 279 318 304 299
265 253 261 274 284 299 296 309 321 328 320 321 321 305 278 275 272 299 287 273 247 236 247 260 289 280 308 323 175 254 295 303 347 295 208 256 224 263 224 248 290 277 280 292 291 289 298
Wind_Speed_850mb
43 44 45 45 45 45 45 43 42 41 40 39 38 37 37 37 35 28 27 22 18 17 16 16 17 13 8 6 4 5 3 8 9 8 6 9 15 11 11 8 8 13 10 11 14 18 28
48 49 48 47 45 44 45 46 45 45 43 41 42 40 37 35 34 30 23 18 12 13 14 12 15 10 6 7 11 6 3 7 8 6 3 5 5 7 6 7 10 7 9 15 15 23 16
50 51 50 47 44 43 44 44 46 47 48 46 43 41 37 34 31 27 18 13 8 8 10 8 11 11 13 14 12 10 5 5 6 2 3 3 2 3 6 6 3 3 13 14 21 25 21
53 56 55 50 44 44 45 44 47 49 49 49 46 40 34 31 27 20 13 11 7 3 6 6 7 13 11 8 18 15 10 7 6 3 9 9 9 8 6 6 3 6 6 12 5 4 13
55 57 57 54 46 45 46 48 51 52 53 51 46 39 32 26 18 13 11 11 6 2 5 6 9 7 8 6 11 10 10 7 6 6 5 11 5 4 3 5 5 3 8 9 5 8 6
56 56 56 54 51 52 52 54 54 54 55 51 45 37 25 18 11 13 4 11 12 10 8 1 8 6 2 3 4 10 10 14 11 6 4 5 5 7 4 9 8 6 5 4 10 2 12
57 56 57 54 55 56 57 56 57 56 55 51 43 31 21 8 9 11 9 2 6 4 14 11 6 10 16 7 7 12 6 4 8 3 6 2 10 14 12 19 7 5 6 8 5 3 19
60 59 57 55 56 57 58 56 59 59 54 49 39 27 14 4 10 9 14 8 13 11 12 10 19 29 26 20 8 17 18 8 7 7 4 7 15 9 8 6 11 12 10 9 11 11 14
61 60 56 56 57 58 59 58 60 59 57 47 36 22 9 10 8 12 14 15 18 15 6 10 7 5 6 19 10 10 18 12 7 7 11 12 2 8 6 9 13 9 12 9 9 10 13
61 58 56 55 58 60 59 60 60 59 53 45 32 19 7 13 9 6 5 17 22 10 6 1 2 4 9 8 9 7 23 12 6 9 8 10 2 12 7 11 13 14 15 8 8 11 14
60 57 53 56 59 61 61 59 58 57 47 38 29 19 8 13 7 2 14 23 10 1 3 3 4 4 4 10 8 2 18 18 21 13 8 1 10 14 14 8 13 2 10 5 7 18 9
56 60 57 55 59 61 61 60 57 54 39 32 27 20 13 8 4 13 20 10 2 4 5 2 5 6 9 4 5 9 7 11 3 12 11 23 5 7 9 8 6 11 7 1 1 5 10
53 57 62 58 56 60 61 59 57 52 34 22 22 19 12 11 12 17 12 3 3 5 6 3 4 7 10 6 5 5 6 9 15 10 19 11 9 3 7 11 6 7 1 8 7 8 5
51 55 60 62 57 57 60 60 57 53 41 14 11 14 13 11 15 18 4 3 7 1 3 5 7 20 10 2 3 7 6 6 6 4 12 13 16 14 8 9 9 8 6 6 9 8 12
49 51 57 62 58 56 57 58 57 54 48 27 16 14 13 14 18 16 1 3 4 3 5 8 16 8 3 2 10 8 5 5 3 9 5 6 12 1 6 3 5 9 12 5 9 3 12
46 49 52 58 62 58 57 56 57 55 53 42 17 15 9 14 22 11 2 4 4 3 5 4 6 6 7 4 14 9 5 3 4 8 26 12 10 2 5 3 2 10 17 6 4 8 11
44 46 49 54 59 62 60 58 56 54 54 50 11 4 5 14 19 4 1 5 7 9 9 6 7 14 15 18 15 12 8 8 10 7 10 6 8 5 8 13 28 12 12 4 4 7 8
43 45 48 49 55 61 61 59 59 59 52 49 12 3 8 15 3 3 2 4 11 11 8 9 7 15 14 6 9 13 16 13 14 17 11 19 9 20 21 6 7 11 20 22 14 13 10
40 44 43 46 50 55 61 59 56 55 53 49 26 9 9 13 2 3 8 8 9 7 5 5 5 4 3 4 8 11 12 2 2 13 7 8 8 6 6 3 3 10 16 19 17 7 25
38 41 44 45 47 51 56 57 53 51 46 35 15 7 9 14 9 4 7 7 7 6 2 9 8 6 3 7 10 9 8 3 1 5 9 4 10 18 20 19 1 11 12 20 27 20 28
39 38 42 43 42 47 52 54 50 48 42 26 16 3 3 7 3 6 2 6 10 8 9 11 4 8 6 8 12 19 19 13 11 23 23 10 23 28 37 38 34 37 36 37 40 43 38
40 38 39 42 41 43 50 54 49 46 42 15 9 8 8 8 8 7 7 5 5 3 5 12 15 12 15 15 20 34 35 27 22 12 9 6 12 9 27 22 27 39 44 50 50 48 48
39 39 36 39 39 38 42 48 51 46 43 15 16 10 6 4 3 4 3 2 2 9 13 21 10 24 26 33 33 32 34 37 29 17 10 8 10 11 23 13 15 25 50 50 44 38 33
38 40 35 36 36 36 37 39 43 44 43 32 18 8 5 7 5 6 5 14 24 11 18 24 34 17 11 29 48 45 44 45 43 41 43 27 15 7 10 11 15 10 6 12 16 29 32
36 40 37 35 34 32 35 37 37 34 37 32 20 7 3 9 9 14 6 12 19 19 16 20 15 14 35 27 8 11 4 6 11 13 25 33 18 8 8 12 26 33 6 3 8 21 16
35 42 40 35 34 30 29 34 38 31 31 29 19 9 2 9 5 6 9 12 8 9 7 8 21 21 9 6 5 5 4 7 3 4 7 10 12 7 5 9 8 5 5 6 1 22 5
38 35 41 36 35 29 27 29 34 34 30 24 16 11 7 9 11 1 7 8 6 3 7 12 14 9 9 5 3 3 3 6 4 6 3 7 7 20 20 12 14 5 6 4 10 8 28
46 36 37 40 36 26 28 28 30 31 32 20 17 12 8 11 30 16 13 17 12 11 6 6 9 4 5 3 4 4 4 6 7 6 7 4 5 6 6 10 14 9 6 10 25 55 57
59 45 39 38 35 28 29 27 28 28 28 19 17 14 13 20 26 48 32 28 32 28 10 7 6 4 3 2 1 3 4 4 7 6 5 6 8 4 10 10 15 23 33 50 50 54 58
Wind_Direction_850mb
9 5 1 358 357 355 354 354 351 350 350 346 342 340 342 340 335 331 327 321 305 287 285 292 310 322 314 299 177 161 38 26 51 60 99 135 156 155 192 195 206 218 227 249 237 251 259
6 3 0 357 356 355 354 353 352 349 348 345 340 337 336 339 335 331 328 320 307 283 276 281 307 315 304 266 170 189 260 322 342 11 63 147 140 191 168 207 205 167 221 257 264 249 240
7 3 358 356 355 356 355 353 354 351 348 346 340 336 335 339 338 333 327 319 299 268 256 258 300 301 277 234 182 195 243 299 318 262 264 299 317 206 191 185 163 232 262 252 240 240 239
7 4 2 358 356 355 354 355 352 350 348 345 341 338 338 340 342 342 342 335 318 265 222 230 285 300 260 184 208 211 243 261 249 271 269 255 292 265 223 138 84 216 233 247 71 242 239
5 5 4 5 4 3 359 355 351 348 345 343 340 338 339 343 356 14 14 14 358 177 205 234 273 288 264 224 210 243 232 238 272 262 237 232 220 195 178 218 231 170 233 210 155 49 338
5 4 6 5 360 357 355 353 352 349 345 342 340 338 343 353 35 44 78 49 74 105 111 155 259 290 234 228 220 216 238 278 261 227 175 173 156 200 155 205 232 178 223 227 257 7 322
4 5 4 2 0 357 355 357 355 352 348 344 343 344 346 20 86 56 40 339 348 322 295 234 279 277 299 298 248 220 241 253 226 143 261 61 220 225 246 235 240 239 242 246 271 186 324
3 3 2 2 1 359 359 359 357 353 352 347 344 347 350 105 115 84 65 63 20 311 311 274 258 255 253 271 287 250 240 217 192 246 182 221 236 211 237 184 193 204 211 225 291 290 312
3 2 3 3 3 3 1 1 360 358 354 354 355 353 5 148 129 122 71 37 357 335 276 290 255 248 205 225 237 261 205 194 202 219 216 235 270 186 215 167 172 186 204 190 265 310 274
4 5 4 4 4 4 3 3 1 0 358 358 3 5 38 143 132 119 27 348 335 322 311 37 221 172 167 172 252 252 214 194 191 250 187 249 191 191 185 226 205 209 199 202 239 295 299
5 6 7 2 4 4 4 5 2 2 4 6 15 24 63 144 115 81 329 330 330 310 246 35 72 78 295 222 328 216 219 215 231 200 197 309 194 193 232 230 189 159 158 223 275 287 281
4 5 5 4 1 2 3 4 4 5 7 18 26 33 70 73 61 336 325 334 102 236 245 100 46 9 346 282 267 298 226 219 199 215 231 263 226 237 246 125 170 136 167 118 148 243 252
1 5 4 2 2 359 359 2 6 5 4 13 30 40 45 23 347 341 335 140 235 223 20 351 343 339 331 277 290 324 291 215 238 230 231 238 220 223 198 164 140 167 201 290 239 211 282
358 0 3 3 1 359 357 359 3 3 4 334 2 12 352 350 348 345 15 129 225 40 294 343 302 310 261 262 230 336 316 239 62 272 254 251 243 180 181 227 196 171 209 252 288 268 295
354 356 359 2 1 359 358 357 1 1 357 349 286 306 343 346 345 344 141 193 242 207 320 301 307 263 263 159 347 321 311 222 88 34 294 273 235 303 78 7 222 147 214 356 260 298 274
350 352 355 359 360 0 357 357 355 0 357 351 311 281 267 337 342 344 96 262 247 246 334 254 262 254 261 297 324 304 277 231 175 89 71 338 276 18 42 87 89 255 146 183 178 258 257
344 349 350 354 358 359 360 356 355 354 356 354 332 264 314 333 336 31 223 262 278 259 338 255 253 264 273 290 273 264 261 278 215 152 120 79 252 210 170 229 253 207 206 160 244 235 265
338 343 348 349 355 357 1 357 357 353 357 356 352 289 329 345 11 50 213 314 311 271 275 262 264 267 256 231 242 245 260 261 195 160 166 191 273 247 246 163 276 259 250 220 228 221 236
332 335 343 345 349 356 358 357 359 356 357 354 341 309 344 353 71 345 325 287 270 286 323 310 283 36 6 250 272 249 257 57 104 206 196 168 216 278 243 160 94 222 206 220 230 243 242
325 331 336 342 345 350 356 356 0 359 358 359 352 341 356 49 67 43 347 282 297 337 265 347 308 67 306 248 243 270 259 243 86 205 243 268 243 237 253 273 174 236 217 218 227 243 256
316 324 329 336 341 345 352 354 1 360 3 5 14 36 345 315 36 345 276 304 296 296 352 348 146 66 3 280 279 261 277 287 286 288 279 233 256 250 257 264 264 263 269 260 249 250 249
310 316 324 330 337 342 346 349 357 3 7 23 26 345 317 281 290 283 195 214 265 254 297 291 264 318 321 273 267 285 285 280 266 272 238 190 264 285 262 260 255 265 265 262 258 260 259
303 307 318 325 330 337 344 347 349 360 6 21 3 324 296 246 252 271 232 265 213 339 279 239 272 313 289 278 284 278 269 262 256 258 262 267 265 285 275 287 281 267 251 252 254 250 249
297 301 312 317 324 330 338 347 345 354 358 6 6 351 311 281 251 246 297 301 290 272 258 278 297 281 264 304 298 277 260 254 248 247 241 244 243 237 284 289 251 268 293 260 259 255 254
295 299 305 311 315 324 329 343 340 353 348 349 358 7 296 285 282 289 312 286 297 288 258 277 277 287 298 302 281 308 155 174 202 232 229 220 212 236 240 220 294 286 270 285 243 285 304
289 299 299 304 307 314 324 337 334 350 342 338 339 338 276 297 249 294 311 295 298 316 300 263 311 323 306 269 265 327 335 329 360 99 24 159 224 219 246 274 269 357 94 118 313 270 131
256 282 293 297 301 305 317 326 334 336 338 338 330 298 321 259 273 213 269 291 264 282 277 294 336 322 346 318 307 320 297 287 301 312 275 147 177 223 244 260 274 334 147 176 256 350 323
257 262 281 290 292 303 306 317 329 330 329 340 324 299 283 271 286 260 258 249 250 229 251 321 298 193 292 22 337 14 299 341 294 283 299 239 229 226 228 245 264 145 214 279 318 304 299
265 253 261 274 284 299 296 309 321 328 320 321 321 305 278 275 272 299 287 273 247 236 247 260 289 280 308 323 175 254 295 303 347 295 208 256 224 263 224 248 290 277 280 292 291 289 298